Simultaneous Nadir Overpasses (SNOs) Predictions

Prediction of SNOs between FY3D and AQUA Satellite Orbit:

Table of predicted SNOs for the next 14.0 days since TLE Epoch: 5/14/2022
Index Date (FY3D) Time (FY3D) Lat,Lon (FY3D) SZA (FY3D ) Date (AQUA) Time (AQUA) Lat,Lon (AQUA) SZA (AQUA ) Distance(km) Time Diff (sec)
1 05/16/2022 11:10:31 -75.44,-176.99 123.62 05/16/2022 11:10:57 -75.43,-176.92 123.64 2.05 26
2 05/16/2022 12:00:45 73.92, -5.45 54.72 05/16/2022 11:59:54 73.92, -5.46 54.72 0.39 51
3 05/19/2022 01:50:14 -81.23, -91.95 113.46 05/19/2022 01:51:27 -81.79, -91.72 113.30 62.99 73
4 05/19/2022 02:37:24 74.83, 133.06 55.13 05/19/2022 02:37:25 74.84, 133.04 55.13 0.80 1
5 05/19/2022 03:25:07 -65.34, -43.81 134.21 05/19/2022 03:23:53 -65.18, -44.61 134.44 41.04 74
6 05/21/2022 17:14:07 75.92, -89.34 55.79 05/21/2022 17:14:59 75.90, -89.24 55.77 2.94 52
7 05/21/2022 18:04:23 -74.52, 82.19 125.77 05/21/2022 18:03:57 -74.52, 82.19 125.77 0.03 26
8 05/24/2022 08:41:02 -75.47,-139.64 125.22 05/24/2022 08:41:27 -75.46,-139.59 125.24 1.42 25
9 05/24/2022 09:31:16 73.95, 31.90 53.12 05/24/2022 09:30:24 73.96, 31.86 53.13 1.56 52
10 05/26/2022 23:19:07 -79.68, -20.51 120.13 05/26/2022 23:20:21 -79.92, -19.70 120.04 30.90 74
11 05/27/2022 00:07:53 74.79, 170.64 53.56 05/27/2022 00:07:52 74.80, 170.55 53.58 2.87 1



Historial Predications of SNOs between FY3D and AQUA
